Regional Weather Roundup
Issued by NWS Lake Charles, LA

Home | Current Version | Previous Version | Text Only | Print | Product List | Glossary On
Versions: 1 2 3 4 5 6 7 8 9 10 11 12 13 14 15 16 17 18 19 20 21 22 23 24 25 26 27
000
ASUS44 KLCH 282210
RWRLCH
REGIONAL WEATHER ROUNDUP
NATIONAL WEATHER SERVICE LAKE CHARLES LA
500 PM CDT WED SEP 28 2016

Note: "fair" indicates few or no clouds below 12,000 feet with no
significant weather and/or obstructions to visibility.


ACROSS SOUTHEAST TEXAS

CITY           SKY/WX    TMP DP  RH WIND       PRES   REMARKS
BEAUMONT       SUNNY     88  67  49 W7        29.98S
BEAUMONT CITY  FAIR      87  64  46 N6        30.00S
ORANGE         CLEAR     85  60  42 W5        30.00S
JASPER         SUNNY     86  58  38 NW5       30.02F
$$

ACROSS CENTRAL LOUISIANA

CITY           SKY/WX    TMP DP  RH WIND       PRES   REMARKS
LEESVILLE      SUNNY     85  65  52 NW7       29.98S
FULLERTON      FAIR      86  64  47 VRB5      29.96S
ALEXANDRIA INT MOSUNNY   85  62  46 W7        29.97R HAZE
ESLER FIELD    SUNNY     85  64  49 W7        29.98S
DERIDDER       FAIR      86  61  42 W7        30.01S
OAKDALE        PTCLDY    83  66  56 CALM      29.98S
OPELOUSAS      FAIR      86  66  51 W7        29.98S
$$

ACROSS SOUTHWEST AND SOUTH CENTRAL LOUISIANA

CITY           SKY/WX    TMP DP  RH WIND       PRES   REMARKS
SULPHUR        CLEAR     87  65  47 W7        29.99S
LAKE CHARLES   SUNNY     87  66  49 W6        29.98S
CHENNAULT INT  SUNNY     88  66  48 NW9       29.98S
CAMERON PHI    CLEAR     82  66  57 S5        29.98S
DEQUINCY       FAIR      84  67  56 NW8       30.00R
JENNINGS       FAIR      85  67  54 NW9       29.98S
LAFAYETTE      SUNNY     87  67  51 W9        29.98R
NEW IBERIA     SUNNY     87  66  49 W6        29.98S
ABBEVILLE      FAIR      86  69  56 SW9       29.98S
PATTERSON      MOSUNNY   86  72  62 VRB3      29.98S
SALT POINT     NOT AVBL
$$

SELECTED SITES ACROSS THE REGION

CITY           SKY/WX    TMP DP  RH WIND       PRES   REMARKS
HOUSTON BUSH   MOSUNNY   88  61  40 NW5       30.00S
HOUSTON HOBBY  MOSUNNY   89  61  38 W6        29.99S
GALVESTON      SUNNY     86  66  51 NE5       30.00S
COLLEGE STAT   SUNNY     86  58  38 VRB3      30.02S
CONROE         SUNNY     87  56  34 NW6       30.01F
HUNTSVILLE     SUNNY     86  53  32 NW7       30.02S
LUFKIN         SUNNY     82  54  37 W5        30.01F
SHREVEPORT     MOSUNNY   87  54  32 W8        29.98S
MONROE         SUNNY     86  55  34 W12       29.96F
NATCHEZ MS     SUNNY     84  61  45 SW7       29.97S
BATON ROUGE    MOSUNNY   86  66  51 W8        29.97S
N.O. INTL ARPT MOSUNNY   90  66  45 N5        29.96S
SLIDELL        SUNNY     86  66  51 SW7       29.96R
$$

MARINE REPORTS

STATION/POSITION TIME  SKY/WX   TEMP    WIND        PRES    VSBY
                                AIR SEA DIR/SP/G
                 (UTC)          (F)     (DEG/KT/KT) (MB)    (MI)
BUOY 30 S HIGH I 2150            84 86     CALM     1016.2F
WVE H/P(F/S)=  1/ 6

SEA RIM ST PARK  2200            82     190/  7/  9 1016.1R
PORT ARTHUR      2100               86  120/  5/  7 1015.4F
SABINE PASS N    2100            84 85  200/  6/  9 1016.9F
TEXAS POINT      NOT AVBL
CALCASIEU PASS   2100            81 84  210/  9/ 10   N/A
LK CHARLES BEACH 2100            85 83              1015.6F
MARSH ISLAND     2100            85                   N/A
FRESH WATER LOCK 2106            85 86  210/  5/ 10 1016.0F
AMERADA PASS     2100            84 84  260/  3/  6 1015.2F
$$




USA.gov is the U.S. government's official web portal to all federal, state and local government web resources and services.